CW0060 Weather Reports


time (UTC)temp
C
wind
direction
speed
KPH
gust
KPH
rain 1hr
cm
rain 24hr
cm
rain mn
cm
humidity
%
barometer
mb
20260506050705 10 194 4.8 8.0 0.00 2.59 0.00 94 1005.2
20260506050206 10 219 3.2 8.0 0.00 2.59 0.00 94 1005.1
20260506044706 10 207 4.8 9.7 0.00 2.59 0.00 94 1005.2
20260506044206 10 185 4.8 12.9 0.00 2.59 0.00 94 1005.1
20260506043705 10 214 4.8 12.9 0.00 2.59 0.00 94 1005.1
20260506042205 10 190 1.6 4.8 0.00 2.59 0.00 94 1005.3
20260506041708 10 160 1.6 8.0 0.00 2.59 0.00 94 1005.2
20260506041205 10 135 1.6 8.0 0.00 2.59 0.00 94 1005.1
20260506040705 10 178 3.2 8.0 0.00 2.59 0.00 94 1005.0
20260506040205 10 156 3.2 6.4 0.00 2.59 0.00 94 1005.1
20260506035705 10 205 3.2 9.7 0.00 2.59 0.00 94 1005.1
20260506035206 10 212 4.8 14.5 0.00 2.59 0.00 94 1005.1
20260506034706 10 248 8.0 14.5 0.00 2.59 0.00 94 1005.2
20260506034205 10 222 8.0 14.5 0.00 2.59 0.00 94 1005.2
20260506033705 10 219 6.4 9.7 0.00 2.59 0.00 94 1005.3
20260506033205 10 207 4.8 8.0 0.00 2.59 0.00 94 1005.4
20260506032705 10 193 3.2 6.4 0.00 2.59 0.00 94 1005.3
20260506032206 10 170 3.2 6.4 0.00 2.59 0.00 94 1005.3
20260506031708 10 188 3.2 6.4 0.00 2.59 0.00 94 1005.1
20260506031205 10 178 3.2 6.4 0.00 2.59 0.00 94 1005.1
20260506030705 10 191 3.2 6.4 0.00 2.59 0.00 94 1005.2
20260506030205 10 222 3.2 8.0 0.00 2.59 0.00 93 1005.4
20260506025206 10 163 4.8 9.7 0.00 2.59 0.00 94 1005.3
20260506024705 11 195 4.8 9.7 0.00 2.59 0.00 94 1005.3
20260506024206 11 212 4.8 8.0 0.00 2.59 0.00 94 1005.3
20260506023208 11 156 4.8 9.7 0.00 2.59 0.00 93 1005.4
20260506022706 11 194 6.4 9.7 0.00 2.59 0.00 93 1005.4
20260506022205 11 212 6.4 9.7 0.00 2.59 0.00 94 1005.4
20260506021705 11 212 4.8 11.3 0.00 2.59 0.00 94 1005.3
20260506020705 11 236 6.4 12.9 0.00 2.59 0.00 94 1005.5
20260506020205 11 226 8.0 12.9 0.00 2.59 0.00 94 1005.6
20260506015705 11 265 8.0 12.9 0.00 2.59 0.00 94 1005.5
20260506015205 11 208 8.0 12.9 0.00 2.59 0.00 94 1005.6
20260506013706 11 234 6.4 11.3 0.00 2.59 0.00 94 1005.6
20260506013205 11 229 6.4 12.9 0.00 2.59 0.00 94 1005.6
20260506012705 11 217 6.4 12.9 0.00 2.59 0.00 93 1005.6
20260506012205 11 220 8.0 11.3 0.00 2.59 0.00 93 1005.6
20260506010705 11 202 6.4 12.9 0.00 2.59 0.00 93 1005.7
20260506010228 11 224 8.0 12.9 0.00 2.59 0.00 93 1005.8
20260506005705 11 210 8.0 12.9 0.00 2.59 0.00 93 1005.8
20260506005206 11 203 9.7 11.3 0.00 2.59 0.00 93 1005.8
20260506004705 11 210 8.0 12.9 0.00 2.59 0.00 93 1005.9
20260506004205 11 200 6.4 12.9 0.00 2.59 0.00 93 1005.8
20260506003705 11 214 6.4 12.9 0.00 2.59 0.00 93 1005.8
20260506002706 11 214 8.0 14.5 0.00 2.59 0.00 93 1005.7
20260506002206 11 222 8.0 17.7 0.03 2.59 0.00 93 1005.8
20260506001706 11 219 9.7 17.7 0.03 2.59 0.00 93 1005.9
20260506000705 11 222 6.4 12.9 0.03 2.59 0.00 93 1005.9
20260506000205 12 226 4.8 8.0 0.03 2.59 2.59 93 1005.8
20260505235705 12 248 4.8 14.5 0.05 2.59 2.59 93 1005.9
20260505235205 12 217 6.4 14.5 0.05 2.59 2.59 93 1006.0
20260505234205 12 219 8.0 12.9 0.10 2.59 2.59 93 1006.0
20260505233706 12 238 8.0 12.9 0.10 2.59 2.59 93 1006.0
20260505233206 12 240 8.0 14.5 0.13 2.59 2.59 93 1006.1
20260505232706 12 222 8.0 14.5 0.10 2.59 2.59 93 1006.1
20260505232206 12 195 8.0 11.3 0.15 2.59 2.59 93 1006.1
20260505231706 12 221 6.4 11.3 0.15 2.59 2.59 93 1006.1
20260505231206 12 200 6.4 11.3 0.15 2.59 2.59 93 1006.1
20260505230705 12 193 6.4 11.3 0.15 2.59 2.59 93 1006.1
20260505230206 12 226 4.8 11.3 0.13 2.57 2.57 93 1006.1
20260505225706 12 229 3.2 6.4 0.13 2.57 2.57 93 1006.2
20260505225206 12 229 3.2 9.7 0.10 2.54 2.54 93 1006.2
20260505224205 12 203 6.4 9.7 0.05 2.49 2.49 93 1006.2
20260505223705 12 187 4.8 9.7 0.05 2.49 2.49 93 1006.2
20260505223205 12 184 4.8 6.4 0.05 2.49 2.49 93 1006.2
20260505222206 12 143 1.6 4.8 0.00 2.44 2.44 93 1006.2
20260505221705 12 187 1.6 3.2 0.00 2.44 2.44 93 1006.2
20260505221206 12 135 1.6 3.2 0.00 2.44 2.44 93 1006.3
20260505220705 12 112 1.6 3.2 0.00 2.44 2.44 93 1006.3
20260505220205 12 127 1.6 3.2 0.00 2.44 2.44 93 1006.3
20260505215706 12 108 1.6 3.2 0.00 2.44 2.44 93 1006.3
20260505215205 12 167 1.6 1.6 0.00 2.44 2.44 93 1006.3
20260505214705 12 222 0.0 3.2 0.00 2.44 2.44 93 1006.3
20260505214205 12 89 0.0 4.8 0.00 2.44 2.44 93 1006.3
20260505213705 12 222 1.6 6.4 0.00 2.44 2.44 93 1006.4
20260505213206 12 269 3.2 6.4 0.00 2.44 2.44 93 1006.4
20260505212706 12 233 3.2 6.4 0.00 2.44 2.44 93 1006.4
20260505212206 12 245 1.6 6.4 0.00 2.44 2.44 93 1006.4
20260505211705 12 178 1.6 6.4 0.00 2.44 2.44 93 1006.4
20260505211206 12 231 1.6 6.4 0.00 2.44 2.44 93 1006.4
20260505210705 12 205 1.6 4.8 0.00 2.44 2.44 93 1006.5
20260505210205 11 117 1.6 4.8 0.00 2.44 2.44 93 1006.5
20260505205708 11 135 1.6 4.8 0.00 2.44 2.44 92 1006.5
20260505205206 11 190 3.2 4.8 0.00 2.44 2.44 92 1006.5
20260505204705 11 155 1.6 4.8 0.00 2.44 2.44 92 1006.5
20260505204205 11 236 1.6 4.8 0.00 2.44 2.44 92 1006.5
20260505203708 11 222 3.2 4.8 0.00 2.44 2.44 92 1006.5
20260505203206 11 124 1.6 4.8 0.00 2.44 2.44 92 1006.5
20260505202704 11 117 1.6 3.2 0.00 2.44 2.44 92 1006.5
20260505202205 12 124 1.6 3.2 0.00 2.44 2.44 92 1006.4
20260505201706 12 89 1.6 3.2 0.00 2.44 2.44 92 1006.5
20260505201205 12 51 1.6 3.2 0.00 2.44 2.44 92 1006.4
20260505200706 12 117 1.6 4.8 0.00 2.44 2.44 92 1006.5
20260505200205 12 104 1.6 4.8 0.00 2.44 2.44 92 1006.4
20260505195705 12 53 3.2 4.8 0.00 2.44 2.44 92 1006.4
20260505194706 12 56 1.6 3.2 0.00 2.44 2.44 92 1006.3
20260505194204 12 63 0.0 3.2 0.00 2.44 2.44 92 1006.3
20260505193705 12 117 0.0 4.8 0.00 2.44 2.44 92 1006.3
20260505193205 12 178 1.6 4.8 0.00 2.44 2.44 92 1006.2
20260505192705 12 231 1.6 4.8 0.00 2.44 2.44 92 1006.2
20260505192205 12 314 1.6 4.8 0.00 2.44 2.44 92 1006.2
20260505191716 12 283 1.6 6.4 0.03 2.44 2.44 92 1006.2
20260505191209 12 286 3.2 6.4 0.03 2.44 2.44 92 1006.2
20260505190205 12 264 3.2 4.8 0.03 2.44 2.44 92 1006.1
20260505185205 13 302 1.6 4.8 0.03 2.44 2.44 92 1006.1
20260505184705 13 324 1.6 8.0 0.05 2.44 2.44 92 1006.0
20260505184214 13 250 3.2 8.0 0.05 2.44 2.44 92 1006.0
20260505183705 13 222 3.2 6.4 0.05 2.44 2.44 92 1006.0
20260505182706 13 286 3.2 6.4 0.08 2.44 2.44 92 1005.8
20260505182205 13 331 3.2 6.4 0.08 2.41 2.41 92 1005.8
20260505181208 13 277 3.2 8.0 0.13 2.41 2.41 92 1005.9
20260505180705 13 8 3.2 8.0 0.15 2.41 2.41 92 1005.8
20260505175705 13 245 4.8 9.7 0.18 2.41 2.41 92 1006.0
20260505175205 13 252 4.8 9.7 0.20 2.39 2.39 92 1005.9
20260505174705 13 269 4.8 9.7 0.23 2.39 2.39 92 1005.9
20260505174206 13 293 4.8 6.4 0.25 2.39 2.39 91 1005.9
20260505173706 13 253 3.2 6.4 0.28 2.39 2.39 91 1005.9
20260505173205 13 252 3.2 6.4 0.28 2.36 2.36 91 1005.9
20260505172706 13 319 3.2 6.4 0.30 2.34 2.34 91 1006.0
20260505171706 13 269 1.6 6.4 0.33 2.31 2.31 91 1005.9
20260505171208 13 300 3.2 6.4 0.38 2.29 2.29 91 1005.9
20260505170705 13 290 3.2 6.4 0.43 2.26 2.26 91 1005.9
20260505170206 13 272 3.2 6.4 0.46 2.24 2.24 91 1006.0
20260505165706 13 300 3.2 6.4 0.48 2.21 2.21 90 1005.9
20260505165208 13 286 3.2 6.4 0.48 2.18 2.18 90 1005.9
20260505164706 13 252 3.2 6.4 0.51 2.16 2.13 90 1006.1
20260505163205 13 253 3.2 8.0 1.09 2.08 2.06 90 1006.4
20260505162705 13 269 3.2 8.0 1.24 2.03 2.03 90 1006.4
20260505162205 13 238 3.2 8.0 1.37 2.01 2.01 90 1006.5
20260505161708 13 283 3.2 12.9 1.63 1.96 1.96 89 1006.6
20260505161205 13 257 6.4 12.9 1.85 1.91 1.91 89 1006.7
20260505153205 14 189 20.9 38.6 0.97 0.97 0.97 85 1006.8
20260505152705 14 182 19.3 33.8 0.76 0.76 0.76 82 1006.5
20260505152222 15 162 19.3 35.4 0.51 0.51 0.51 80 1006.6
20260505151208 17 212 14.5 35.4 0.03 0.03 0.03 73 1006.3
20260505150708 17 118 8.0 16.1 0.00 0.00 0.00 71 1006.1
20260505140204 19 257 4.8 11.3 0.00 0.00 0.00 59 1005.2
20260505130205 20 327 3.2 9.7 0.00 0.00 0.00 53 1005.7
20260505124706 21 49 6.4 12.9 0.00 0.00 0.00 50 1005.9
20260505124205 21 23 4.8 12.9 0.00 0.00 0.00 54 1005.8
20260505123206 20 89 4.8 11.3 0.00 0.00 0.00 50 1006.0
20260505122206 21 252 6.4 12.9 0.00 0.00 0.00 46 1006.1
20260505121705 22 224 6.4 11.3 0.00 0.00 0.00 47 1006.1
20260505120205 21 130 3.2 9.7 0.00 0.00 0.00 51 1006.2
20260505115705 21 199 4.8 9.7 0.00 0.00 0.00 53 1006.3
20260505115206 21 41 4.8 11.3 0.00 0.00 0.00 52 1006.3
20260505114206 20 46 4.8 11.3 0.00 0.00 0.00 53 1006.4
20260505113705 21 135 3.2 9.7 0.00 0.00 0.00 54 1006.5
20260505113205 21 140 3.2 9.7 0.00 0.00 0.00 52 1006.6
20260505112204 21 89 4.8 14.5 0.00 0.00 0.00 52 1006.6
20260505111705 22 117 6.4 14.5 0.00 0.00 0.00 50 1006.7
20260505111205 22 238 4.8 12.9 0.00 0.00 0.00 51 1006.7
20260505110705 22 101 4.8 12.9 0.00 0.00 0.00 53 1006.7
20260505110206 21 39 3.2 9.7 0.00 0.00 0.00 59 1006.8
20260505102206 19 142 4.8 9.7 0.00 0.00 0.00 65 1007.3
20260505101705 18 283 3.2 6.4 0.00 0.00 0.00 68 1007.2
20260505101205 18 229 3.2 6.4 0.00 0.00 0.00 68 1007.3
20260505100206 18 1 1.6 8.0 0.00 0.00 0.00 68 1007.4
20260505095705 18 233 3.2 8.0 0.00 0.00 0.00 68 1007.5
20260505095205 18 58 3.2 8.0 0.00 0.00 0.00 69 1007.5
20260505094205 17 194 3.2 8.0 0.00 0.00 0.00 70 1007.4
20260505093706 17 208 1.6 8.0 0.00 0.00 0.00 74 1007.5
20260505093205 17 328 3.2 8.0 0.00 0.00 0.00 73 1007.5
20260505092705 16 257 3.2 6.4 0.00 0.00 0.00 73 1007.7
20260505092204 16 240 3.2 6.4 0.00 0.00 0.00 75 1007.6
20260505091705 16 240 3.2 8.0 0.00 0.00 0.00 73 1007.7
20260505091208 17 269 3.2 8.0 0.00 0.00 0.00 73 1007.8
20260505090705 17 314 3.2 8.0 0.00 0.00 0.00 74 1007.9
20260505090206 17 308 3.2 8.0 0.00 0.00 0.00 74 1007.8
20260505085705 17 168 3.2 6.4 0.00 0.00 0.00 76 1007.9
20260505085205 16 205 3.2 6.4 0.00 0.00 0.00 76 1007.9
20260505084705 16 205 3.2 6.4 0.00 0.00 0.00 77 1007.8
20260505083705 16 215 1.6 4.8 0.00 0.00 0.00 78 1007.8
20260505083205 15 331 1.6 4.8 0.00 0.00 0.00 79 1007.9
20260505082706 15 222 1.6 4.8 0.00 0.00 0.00 79 1007.9
20260505082206 15 305 1.6 4.8 0.00 0.00 0.00 80 1008.0
20260505081706 15 46 1.6 4.8 0.00 0.00 0.00 79 1008.1
20260505081205 15 314 1.6 4.8 0.00 0.00 0.00 80 1008.1
20260505080706 15 0 1.6 4.8 0.00 0.00 0.00 80 1008.2
20260505080205 15 82 1.6 6.4 0.00 0.00 0.00 81 1008.2
20260505075705 15 178 1.6 6.4 0.00 0.00 0.00 82 1008.2
20260505075206 15 233 1.6 6.4 0.00 0.00 0.00 82 1008.2
20260505074705 14 252 1.6 4.8 0.00 0.00 0.00 83 1008.2
20260505074206 14 331 3.2 4.8 0.00 0.00 0.00 83 1008.3
20260505073705 14 269 1.6 4.8 0.00 0.00 0.00 83 1008.3
20260505073205 13 255 1.6 3.2 0.00 0.00 0.00 84 1008.3
20260505072705 13 46 1.6 3.2 0.00 0.00 0.00 84 1008.4
20260505072205 13 269 1.6 3.2 0.00 0.00 0.00 85 1008.5
20260505071705 13 46 1.6 3.2 0.00 0.00 0.00 85 1008.5
20260505071205 13 269 0.0 3.2 0.00 0.00 0.00 86 1008.5
20260505070706 13 269 0.0 1.6 0.00 0.00 0.00 86 1008.6
20260505070206 13 46 0.0 1.6 0.00 0.00 0.00 87 1008.6
20260505065706 13 28 0.0 1.6 0.00 0.00 0.00 87 1008.6
20260505065206 13 89 0.0 1.6 0.00 0.00 0.00 87 1008.9
20260505064705 13 269 0.0 3.2 0.00 0.00 0.00 87 1008.7
20260505064206 13 89 0.0 3.2 0.00 0.00 0.00 87 1008.7
20260505063206 13 250 1.6 3.2 0.00 0.00 0.00 87 1008.7
20260505062205 12 269 1.6 3.2 0.00 0.00 0.00 88 1008.6
20260505061706 12 222 1.6 3.2 0.00 0.00 0.00 88 1008.7
20260505061205 12 269 1.6 3.2 0.00 0.00 0.00 88 1008.7
20260505060209 12 222 0.0 1.6 0.00 0.00 0.00 88 1008.6
20260505055705 12 178 0.0 1.6 0.00 0.00 0.00 87 1008.6